Time,TemperatureF,DewpointF,PressureIn,WindDirection,WindDirectionDegrees,WindSpeedMPH,WindSpeedGustMPH,Humidity,HourlyPrecipIn,Conditions,Clouds,dailyrainin,SoftwareType,DateUTC
2013-03-15 00:00:00,39.0,20.5,30.15,NW,315,0.0,7.0,47,0.00,,,0.00,Weather View 32 v70,2013-03-15 04:00:00,
2013-03-15 00:05:00,39.0,19.9,30.15,NW,315,0.0,7.0,46,0.00,,,0.00,Weather View 32 v70,2013-03-15 04:05:00,
2013-03-15 00:10:00,39.0,19.9,30.15,NW,315,0.0,7.0,46,0.00,,,0.00,Weather View 32 v70,2013-03-15 04:10:00,
2013-03-15 00:15:00,39.0,20.9,30.15,NW,315,0.0,7.0,48,0.00,,,0.00,Weather View 32 v70,2013-03-15 04:15:00,
2013-03-15 00:20:00,39.0,19.9,30.15,NW,315,0.0,4.0,46,0.00,,,0.00,Weather View 32 v70,2013-03-15 04:20:00,
2013-03-15 00:25:00,39.0,20.9,30.16,NW,315,0.0,3.0,48,0.00,,,0.00,Weather View 32 v70,2013-03-15 04:25:00,
2013-03-15 00:30:00,38.0,21.5,30.16,NW,315,0.0,0.0,51,0.00,,,0.00,Weather View 32 v70,2013-03-15 04:30:00,
2013-03-15 00:35:00,38.0,25.3,30.17,NW,315,0.0,0.0,60,0.00,,,0.00,Weather View 32 v70,2013-03-15 04:35:00,
2013-03-15 00:40:00,37.0,24.4,30.17,NW,315,0.0,0.0,60,0.00,,,0.00,Weather View 32 v70,2013-03-15 04:40:00,
2013-03-15 00:45:00,37.0,22.3,30.18,NW,315,0.0,0.0,55,0.00,,,0.00,Weather View 32 v70,2013-03-15 04:45:00,
2013-03-15 00:50:00,37.0,20.1,30.18,NW,315,0.0,0.0,50,0.00,,,0.00,Weather View 32 v70,2013-03-15 04:50:00,
2013-03-15 00:55:00,38.0,20.0,30.18,NW,315,0.0,0.0,48,0.00,,,0.00,Weather View 32 v70,2013-03-15 04:55:00,
2013-03-15 01:00:00,38.0,19.5,30.18,NW,315,0.0,0.0,47,0.00,,,0.00,Weather View 32 v70,2013-03-15 05:00:00,
2013-03-15 01:05:00,38.0,19.5,30.17,NW,315,0.0,0.0,47,0.00,,,0.00,Weather View 32 v70,2013-03-15 05:05:00,
2013-03-15 01:10:00,38.0,20.5,30.17,NW,315,0.0,0.0,49,0.00,,,0.00,Weather View 32 v70,2013-03-15 05:10:00,
2013-03-15 01:15:00,37.0,21.0,30.17,NW,315,0.0,0.0,52,0.00,,,0.00,Weather View 32 v70,2013-03-15 05:15:00,
2013-03-15 01:20:00,37.0,22.7,30.17,NW,315,0.0,0.0,56,0.00,,,0.00,Weather View 32 v70,2013-03-15 05:20:00,
2013-03-15 01:25:00,37.0,24.4,30.18,NW,315,0.0,0.0,60,0.00,,,0.00,Weather View 32 v70,2013-03-15 05:25:00,
2013-03-15 01:30:00,37.0,20.5,30.18,NW,315,0.0,0.0,51,0.00,,,0.00,Weather View 32 v70,2013-03-15 05:30:00,
2013-03-15 01:35:00,38.0,19.5,30.17,NW,315,6.0,0.0,47,0.00,,,0.00,Weather View 32 v70,2013-03-15 05:35:00,
2013-03-15 01:40:00,38.0,19.5,30.17,NW,315,4.0,6.0,47,0.00,,,0.00,Weather View 32 v70,2013-03-15 05:40:00,
2013-03-15 01:45:00,38.0,19.5,30.17,NW,315,4.0,7.0,47,0.00,,,0.00,Weather View 32 v70,2013-03-15 05:45:00,
2013-03-15 01:50:00,38.0,19.5,30.17,NW,315,4.0,7.0,47,0.00,,,0.00,Weather View 32 v70,2013-03-15 05:50:00,
2013-03-15 01:55:00,38.0,19.0,30.17,NW,315,4.0,7.0,46,0.00,,,0.00,Weather View 32 v70,2013-03-15 05:55:00,
2013-03-15 02:00:00,38.0,19.0,30.17,NW,315,5.0,7.0,46,0.00,,,0.00,Weather View 32 v70,2013-03-15 06:00:00,
2013-03-15 02:05:00,38.0,19.5,30.17,NW,315,4.0,7.0,47,0.00,,,0.00,Weather View 32 v70,2013-03-15 06:05:00,
2013-03-15 02:10:00,38.0,20.5,30.17,NW,315,2.0,7.0,49,0.00,,,0.00,Weather View 32 v70,2013-03-15 06:10:00,
2013-03-15 02:15:00,38.0,20.0,30.16,NW,315,3.0,7.0,48,0.00,,,0.00,Weather View 32 v70,2013-03-15 06:15:00,
2013-03-15 02:20:00,37.0,19.6,30.16,NW,315,3.0,7.0,49,0.00,,,0.00,Weather View 32 v70,2013-03-15 06:20:00,
2013-03-15 02:25:00,37.0,19.1,30.16,NW,315,3.0,7.0,48,0.00,,,0.00,Weather View 32 v70,2013-03-15 06:25:00,
2013-03-15 02:30:00,37.0,20.1,30.16,NW,315,2.0,7.0,50,0.00,,,0.00,Weather View 32 v70,2013-03-15 06:30:00,
2013-03-15 02:35:00,37.0,21.9,30.17,NW,315,2.0,7.0,54,0.00,,,0.00,Weather View 32 v70,2013-03-15 06:35:00,
2013-03-15 02:40:00,36.0,26.1,30.17,NW,315,0.0,7.0,67,0.00,,,0.00,Weather View 32 v70,2013-03-15 06:40:00,
2013-03-15 02:45:00,36.0,31.0,30.17,NW,315,2.0,7.0,82,0.00,,,0.00,Weather View 32 v70,2013-03-15 06:45:00,
2013-03-15 02:50:00,35.0,29.8,30.17,NW,315,0.0,7.0,81,0.00,,,0.00,Weather View 32 v70,2013-03-15 06:50:00,
2013-03-15 02:55:00,35.0,30.4,30.17,NW,315,0.0,7.0,83,0.00,,,0.00,Weather View 32 v70,2013-03-15 06:55:00,
2013-03-15 03:00:00,35.0,29.1,30.17,NW,315,0.0,7.0,79,0.00,,,0.00,Weather View 32 v70,2013-03-15 07:00:00,
2013-03-15 03:05:00,35.0,28.8,30.16,NW,315,0.0,6.0,78,0.00,,,0.00,Weather View 32 v70,2013-03-15 07:05:00,
2013-03-15 03:10:00,35.0,28.2,30.16,NW,315,0.0,6.0,76,0.00,,,0.00,Weather View 32 v70,2013-03-15 07:10:00,
2013-03-15 03:15:00,35.0,28.8,30.15,NW,315,0.0,6.0,78,0.00,,,0.00,Weather View 32 v70,2013-03-15 07:15:00,
2013-03-15 03:20:00,34.0,28.2,30.15,NW,315,0.0,6.0,79,0.00,,,0.00,Weather View 32 v70,2013-03-15 07:20:00,
2013-03-15 03:25:00,34.0,28.2,30.16,NW,315,0.0,6.0,79,0.00,,,0.00,Weather View 32 v70,2013-03-15 07:25:00,
2013-03-15 03:30:00,33.0,26.9,30.16,NW,315,0.0,6.0,78,0.00,,,0.00,Weather View 32 v70,2013-03-15 07:30:00,
2013-03-15 03:35:00,33.0,27.5,30.15,NW,315,0.0,3.0,80,0.00,,,0.00,Weather View 32 v70,2013-03-15 07:35:00,
2013-03-15 03:40:00,33.0,28.1,30.15,NW,315,0.0,3.0,82,0.00,,,0.00,Weather View 32 v70,2013-03-15 07:40:00,
2013-03-15 03:45:00,33.0,28.4,30.15,NW,315,0.0,3.0,83,0.00,,,0.00,Weather View 32 v70,2013-03-15 07:45:00,
2013-03-15 03:50:00,33.0,28.7,30.15,NW,315,0.0,0.0,84,0.00,,,0.00,Weather View 32 v70,2013-03-15 07:50:00,
2013-03-15 03:55:00,33.0,28.7,30.15,NW,315,0.0,0.0,84,0.00,,,0.00,Weather View 32 v70,2013-03-15 07:55:00,
2013-03-15 04:00:00,33.0,28.7,30.15,NW,315,0.0,0.0,84,0.00,,,0.00,Weather View 32 v70,2013-03-15 08:00:00,
2013-03-15 04:05:00,33.0,29.0,30.15,NW,315,0.0,0.0,85,0.00,,,0.00,Weather View 32 v70,2013-03-15 08:05:00,
2013-03-15 04:10:00,33.0,29.0,30.15,NW,315,0.0,0.0,85,0.00,,,0.00,Weather View 32 v70,2013-03-15 08:10:00,
2013-03-15 04:15:00,32.0,29.7,30.15,NW,315,0.0,0.0,91,0.00,,,0.00,Weather View 32 v70,2013-03-15 08:15:00,
2013-03-15 04:20:00,32.0,29.7,30.15,NW,315,0.0,0.0,91,0.00,,,0.00,Weather View 32 v70,2013-03-15 08:20:00,
2013-03-15 04:25:00,31.0,28.9,30.16,NW,315,0.0,0.0,92,0.00,,,0.00,Weather View 32 v70,2013-03-15 08:25:00,
2013-03-15 04:30:00,31.0,28.1,30.16,NW,315,0.0,0.0,89,0.00,,,0.00,Weather View 32 v70,2013-03-15 08:30:00,
2013-03-15 04:35:00,32.0,30.5,30.17,NW,315,0.0,0.0,94,0.00,,,0.00,Weather View 32 v70,2013-03-15 08:35:00,
2013-03-15 04:40:00,32.0,30.2,30.17,NW,315,0.0,0.0,93,0.00,,,0.00,Weather View 32 v70,2013-03-15 08:40:00,
2013-03-15 04:45:00,31.0,29.7,30.17,NW,315,0.0,0.0,95,0.00,,,0.00,Weather View 32 v70,2013-03-15 08:45:00,
2013-03-15 04:50:00,31.0,29.7,30.17,NW,315,0.0,0.0,95,0.00,,,0.00,Weather View 32 v70,2013-03-15 08:50:00,
2013-03-15 04:55:00,31.0,29.7,30.17,NW,315,0.0,0.0,95,0.00,,,0.00,Weather View 32 v70,2013-03-15 08:55:00,
2013-03-15 05:00:00,31.0,29.7,30.17,NW,315,0.0,0.0,95,0.00,,,0.00,Weather View 32 v70,2013-03-15 09:00:00,
2013-03-15 05:05:00,31.0,29.7,30.17,NW,315,0.0,0.0,95,0.00,,,0.00,Weather View 32 v70,2013-03-15 09:05:00,
2013-03-15 05:10:00,32.0,30.5,30.17,NW,315,0.0,0.0,94,0.00,,,0.00,Weather View 32 v70,2013-03-15 09:10:00,
2013-03-15 05:15:00,32.0,30.7,30.17,NW,315,0.0,0.0,95,0.00,,,0.00,Weather View 32 v70,2013-03-15 09:15:00,
2013-03-15 05:20:00,32.0,30.7,30.17,NW,315,0.0,0.0,95,0.00,,,0.00,Weather View 32 v70,2013-03-15 09:20:00,
2013-03-15 05:25:00,32.0,30.7,30.17,NW,315,0.0,0.0,95,0.00,,,0.00,Weather View 32 v70,2013-03-15 09:25:00,
2013-03-15 05:31:00,32.0,30.7,30.17,NW,315,0.0,0.0,95,0.00,,,0.00,Weather View 32 v70,2013-03-15 09:31:00,
2013-03-15 05:36:00,32.0,29.7,30.17,NW,315,0.0,0.0,91,0.00,,,0.00,Weather View 32 v70,2013-03-15 09:36:00,
2013-03-15 05:41:00,31.0,29.7,30.17,NW,315,0.0,0.0,95,0.00,,,0.00,Weather View 32 v70,2013-03-15 09:41:00,
2013-03-15 05:46:00,31.0,29.7,30.17,NW,315,0.0,0.0,95,0.00,,,0.00,Weather View 32 v70,2013-03-15 09:46:00,
2013-03-15 05:51:00,30.0,28.7,30.17,NW,315,0.0,0.0,95,0.00,,,0.00,Weather View 32 v70,2013-03-15 09:51:00,
2013-03-15 05:56:00,30.0,28.7,30.17,NW,315,0.0,0.0,95,0.00,,,0.00,Weather View 32 v70,2013-03-15 09:56:00,
2013-03-15 06:01:00,30.0,28.7,30.17,NW,315,0.0,0.0,95,0.00,,,0.00,Weather View 32 v70,2013-03-15 10:01:00,
2013-03-15 06:06:00,30.0,28.7,30.17,NW,315,0.0,0.0,95,0.00,,,0.00,Weather View 32 v70,2013-03-15 10:06:00,
2013-03-15 06:11:00,30.0,28.7,30.17,NW,315,0.0,0.0,95,0.00,,,0.00,Weather View 32 v70,2013-03-15 10:11:00,
2013-03-15 06:16:00,30.0,28.7,30.17,NW,315,0.0,0.0,95,0.00,,,0.00,Weather View 32 v70,2013-03-15 10:16:00,
2013-03-15 06:21:00,30.0,28.7,30.17,NW,315,0.0,0.0,95,0.00,,,0.00,Weather View 32 v70,2013-03-15 10:21:00,
2013-03-15 06:26:00,30.0,28.7,30.17,NW,315,0.0,0.0,95,0.00,,,0.00,Weather View 32 v70,2013-03-15 10:26:00,
2013-03-15 06:31:00,29.0,27.5,30.17,NW,315,0.0,0.0,94,0.00,,,0.00,Weather View 32 v70,2013-03-15 10:31:00,
2013-03-15 06:36:00,29.0,27.5,30.17,NW,315,0.0,0.0,94,0.00,,,0.00,Weather View 32 v70,2013-03-15 10:36:00,
2013-03-15 06:41:00,30.0,28.7,30.17,NW,315,0.0,0.0,95,0.00,,,0.00,Weather View 32 v70,2013-03-15 10:41:00,
2013-03-15 06:47:00,30.0,28.7,30.17,NW,315,0.0,0.0,95,0.00,,,0.00,Weather View 32 v70,2013-03-15 10:47:00,
2013-03-15 06:52:00,30.0,28.7,30.17,NW,315,0.0,0.0,95,0.00,,,0.00,Weather View 32 v70,2013-03-15 10:52:00,
2013-03-15 06:57:00,30.0,28.7,30.18,NW,315,0.0,0.0,95,0.00,,,0.00,Weather View 32 v70,2013-03-15 10:57:00,
2013-03-15 07:02:00,30.0,28.7,30.18,NW,315,0.0,0.0,95,0.00,,,0.00,Weather View 32 v70,2013-03-15 11:02:00,
2013-03-15 07:07:00,29.0,27.5,30.17,NW,315,0.0,0.0,94,0.00,,,0.00,Weather View 32 v70,2013-03-15 11:07:00,
2013-03-15 07:12:00,30.0,28.7,30.17,NW,315,0.0,0.0,95,0.00,,,0.00,Weather View 32 v70,2013-03-15 11:12:00,
2013-03-15 07:17:00,30.0,28.7,30.18,NW,315,0.0,0.0,95,0.00,,,0.00,Weather View 32 v70,2013-03-15 11:17:00,
2013-03-15 07:22:00,29.0,27.5,30.18,NW,315,0.0,0.0,94,0.00,,,0.00,Weather View 32 v70,2013-03-15 11:22:00,
2013-03-15 07:27:00,30.0,28.7,30.17,NW,315,0.0,0.0,95,0.00,,,0.00,Weather View 32 v70,2013-03-15 11:27:00,
2013-03-15 07:32:00,30.0,28.7,30.17,NW,315,0.0,0.0,95,0.00,,,0.00,Weather View 32 v70,2013-03-15 11:32:00,
2013-03-15 07:37:00,30.0,28.7,30.17,NW,315,0.0,0.0,95,0.00,,,0.00,Weather View 32 v70,2013-03-15 11:37:00,
2013-03-15 07:42:00,30.0,28.7,30.17,NW,315,0.0,0.0,95,0.00,,,0.00,Weather View 32 v70,2013-03-15 11:42:00,
2013-03-15 07:47:00,30.0,28.7,30.17,NW,315,0.0,0.0,95,0.00,,,0.00,Weather View 32 v70,2013-03-15 11:47:00,
2013-03-15 07:52:00,30.0,28.7,30.17,NW,315,0.0,0.0,95,0.00,,,0.00,Weather View 32 v70,2013-03-15 11:52:00,
2013-03-15 07:57:00,30.0,28.7,30.18,NW,315,0.0,0.0,95,0.00,,,0.00,Weather View 32 v70,2013-03-15 11:57:00,
2013-03-15 08:02:00,30.0,28.7,30.18,NW,315,0.0,0.0,95,0.00,,,0.00,Weather View 32 v70,2013-03-15 12:02:00,
2013-03-15 08:07:00,31.0,29.7,30.18,NW,315,0.0,0.0,95,0.00,,,0.00,Weather View 32 v70,2013-03-15 12:07:00,
2013-03-15 08:12:00,31.0,29.7,30.18,NW,315,0.0,0.0,95,0.00,,,0.00,Weather View 32 v70,2013-03-15 12:12:00,
2013-03-15 08:17:00,31.0,29.7,30.19,NW,315,0.0,0.0,95,0.00,,,0.00,Weather View 32 v70,2013-03-15 12:17:00,
2013-03-15 08:22:00,32.0,30.7,30.19,NW,315,0.0,0.0,95,0.00,,,0.00,Weather View 32 v70,2013-03-15 12:22:00,
2013-03-15 08:27:00,32.0,30.7,30.19,NW,315,0.0,0.0,95,0.00,,,0.00,Weather View 32 v70,2013-03-15 12:27:00,
2013-03-15 08:32:00,33.0,31.7,30.19,NW,315,1.0,3.0,95,0.00,,,0.00,Weather View 32 v70,2013-03-15 12:32:00,
2013-03-15 08:37:00,34.0,29.1,30.18,NW,315,2.0,5.0,82,0.00,,,0.00,Weather View 32 v70,2013-03-15 12:37:00,
2013-03-15 08:42:00,35.0,27.2,30.18,NW,315,0.0,6.0,73,0.00,,,0.00,Weather View 32 v70,2013-03-15 12:42:00,
2013-03-15 08:47:00,35.0,27.5,30.18,NW,315,0.0,6.0,74,0.00,,,0.00,Weather View 32 v70,2013-03-15 12:47:00,
2013-03-15 08:52:00,36.0,26.1,30.18,WSW,247,6.0,8.0,67,0.00,,,0.00,Weather View 32 v70,2013-03-15 12:52:00,
2013-03-15 08:57:00,37.0,26.3,30.19,WSW,247,2.0,8.0,65,0.00,,,0.00,Weather View 32 v70,2013-03-15 12:57:00,
2013-03-15 09:02:00,38.0,26.5,30.19,WSW,247,0.0,8.0,63,0.00,,,0.00,Weather View 32 v70,2013-03-15 13:02:00,
2013-03-15 09:07:00,40.0,26.8,30.17,WSW,247,0.0,8.0,59,0.00,,,0.00,Weather View 32 v70,2013-03-15 13:07:00,
2013-03-15 09:12:00,41.0,26.9,30.17,WSW,247,1.0,8.0,57,0.00,,,0.00,Weather View 32 v70,2013-03-15 13:12:00,
2013-03-15 09:17:00,43.0,27.9,30.15,WSW,247,2.0,8.0,55,0.00,,,0.00,Weather View 32 v70,2013-03-15 13:17:00,
2013-03-15 09:22:00,43.0,24.1,30.15,SW,225,6.0,8.0,47,0.00,,,0.00,Weather View 32 v70,2013-03-15 13:22:00,
2013-03-15 09:27:00,43.0,24.1,30.15,SW,225,3.0,8.0,47,0.00,,,0.00,Weather View 32 v70,2013-03-15 13:27:00,
2013-03-15 09:32:00,44.0,24.0,30.15,SW,225,5.0,8.0,45,0.00,,,0.00,Weather View 32 v70,2013-03-15 13:32:00,
2013-03-15 09:37:00,44.0,22.9,30.14,SW,225,3.0,9.0,43,0.00,,,0.00,Weather View 32 v70,2013-03-15 13:37:00,
2013-03-15 09:42:00,45.0,22.7,30.14,SW,225,5.0,9.0,41,0.00,,,0.00,Weather View 32 v70,2013-03-15 13:42:00,
2013-03-15 09:47:00,45.0,22.7,30.13,SW,225,6.0,9.0,41,0.00,,,0.00,Weather View 32 v70,2013-03-15 13:47:00,
2013-03-15 09:52:00,45.0,22.7,30.13,SW,225,9.0,10.0,41,0.00,,,0.00,Weather View 32 v70,2013-03-15 13:52:00,
2013-03-15 09:57:00,46.0,22.4,30.13,SW,225,6.0,10.0,39,0.00,,,0.00,Weather View 32 v70,2013-03-15 13:57:00,
2013-03-15 10:02:00,46.0,23.0,30.13,SW,225,4.0,10.0,40,0.00,,,0.00,Weather View 32 v70,2013-03-15 14:02:00,
2013-03-15 10:07:00,46.0,21.8,30.12,SSW,202,7.0,12.0,38,0.00,,,0.00,Weather View 32 v70,2013-03-15 14:07:00,
2013-03-15 10:12:00,47.0,22.7,30.12,SSW,202,9.0,12.0,38,0.00,,,0.00,Weather View 32 v70,2013-03-15 14:12:00,
2013-03-15 10:17:00,47.0,22.7,30.12,SSW,202,7.0,12.0,38,0.00,,,0.00,Weather View 32 v70,2013-03-15 14:17:00,
2013-03-15 10:22:00,48.0,23.6,30.11,South,180,3.0,12.0,38,0.00,,,0.00,Weather View 32 v70,2013-03-15 14:22:00,
2013-03-15 10:27:00,47.0,22.7,30.11,SSW,202,11.0,16.0,38,0.00,,,0.00,Weather View 32 v70,2013-03-15 14:27:00,
2013-03-15 10:32:00,48.0,24.2,30.11,SSW,202,6.0,16.0,39,0.00,,,0.00,Weather View 32 v70,2013-03-15 14:32:00,
2013-03-15 10:37:00,48.0,24.8,30.11,West,270,6.0,16.0,40,0.00,,,0.00,Weather View 32 v70,2013-03-15 14:37:00,
2013-03-15 10:42:00,49.0,26.3,30.10,SW,225,6.0,16.0,41,0.00,,,0.00,Weather View 32 v70,2013-03-15 14:42:00,
2013-03-15 10:47:00,48.0,24.2,30.10,SSW,202,11.0,16.0,39,0.00,,,0.00,Weather View 32 v70,2013-03-15 14:47:00,
2013-03-15 10:53:00,49.0,26.3,30.09,SW,225,6.0,16.0,41,0.00,,,0.00,Weather View 32 v70,2013-03-15 14:53:00,
2013-03-15 10:58:00,49.0,26.9,30.09,WSW,247,9.0,18.0,42,0.00,,,0.00,Weather View 32 v70,2013-03-15 14:58:00,
2013-03-15 11:03:00,49.0,26.3,30.09,WSW,247,9.0,18.0,41,0.00,,,0.00,Weather View 32 v70,2013-03-15 15:03:00,
2013-03-15 11:08:00,49.0,26.9,30.09,West,270,9.0,18.0,42,0.00,,,0.00,Weather View 32 v70,2013-03-15 15:08:00,
2013-03-15 11:13:00,50.0,27.2,30.08,WSW,247,7.0,18.0,41,0.00,,,0.00,Weather View 32 v70,2013-03-15 15:13:00,
2013-03-15 11:18:00,50.0,26.0,30.08,WSW,247,4.0,18.0,39,0.00,,,0.00,Weather View 32 v70,2013-03-15 15:18:00,
2013-03-15 11:23:00,50.0,26.0,30.08,West,270,12.0,18.0,39,0.00,,,0.00,Weather View 32 v70,2013-03-15 15:23:00,
2013-03-15 11:28:00,50.0,25.3,30.08,SW,225,6.0,18.0,38,0.00,,,0.00,Weather View 32 v70,2013-03-15 15:28:00,
2013-03-15 11:33:00,51.0,26.2,30.07,WSW,247,9.0,18.0,38,0.00,,,0.00,Weather View 32 v70,2013-03-15 15:33:00,
2013-03-15 11:38:00,51.0,25.6,30.07,SW,225,7.0,18.0,37,0.00,,,0.00,Weather View 32 v70,2013-03-15 15:38:00,
2013-03-15 11:43:00,52.0,27.1,30.06,SW,225,9.0,18.0,38,0.00,,,0.00,Weather View 32 v70,2013-03-15 15:43:00,
2013-03-15 11:48:00,52.0,27.1,30.06,SSW,202,3.0,18.0,38,0.00,,,0.00,Weather View 32 v70,2013-03-15 15:48:00,
2013-03-15 11:53:00,52.0,27.1,30.05,SSW,202,6.0,18.0,38,0.00,,,0.00,Weather View 32 v70,2013-03-15 15:53:00,
2013-03-15 11:58:00,52.0,26.5,30.05,SSW,202,11.0,17.0,37,0.00,,,0.00,Weather View 32 v70,2013-03-15 15:58:00,
2013-03-15 12:03:00,53.0,27.4,30.05,SW,225,5.0,17.0,37,0.00,,,0.00,Weather View 32 v70,2013-03-15 16:03:00,
2013-03-15 12:08:00,53.0,28.0,30.05,SW,225,6.0,17.0,38,0.00,,,0.00,Weather View 32 v70,2013-03-15 16:08:00,
2013-03-15 12:13:00,52.0,25.1,30.05,SW,225,7.0,17.0,35,0.00,,,0.00,Weather View 32 v70,2013-03-15 16:13:00,
2013-03-15 12:18:00,53.0,27.4,30.05,WSW,247,8.0,17.0,37,0.00,,,0.00,Weather View 32 v70,2013-03-15 16:18:00,
2013-03-15 12:23:00,54.0,28.3,30.03,WSW,247,6.0,15.0,37,0.00,,,0.00,Weather View 32 v70,2013-03-15 16:23:00,
2013-03-15 12:28:00,54.0,28.9,30.03,West,270,9.0,15.0,38,0.00,,,0.00,Weather View 32 v70,2013-03-15 16:28:00,
2013-03-15 12:33:00,54.0,27.6,30.03,SW,225,6.0,15.0,36,0.00,,,0.00,Weather View 32 v70,2013-03-15 16:33:00,
2013-03-15 12:38:00,54.0,27.6,30.03,SW,225,7.0,15.0,36,0.00,,,0.00,Weather View 32 v70,2013-03-15 16:38:00,
2013-03-15 12:43:00,55.0,28.5,30.02,SW,225,6.0,15.0,36,0.00,,,0.00,Weather View 32 v70,2013-03-15 16:43:00,
2013-03-15 12:48:00,54.0,27.6,30.02,SW,225,6.0,15.0,36,0.00,,,0.00,Weather View 32 v70,2013-03-15 16:48:00,
2013-03-15 12:53:00,54.0,26.2,30.03,SSW,202,6.0,15.0,34,0.00,,,0.00,Weather View 32 v70,2013-03-15 16:53:00,
2013-03-15 12:58:00,55.0,27.1,30.03,South,180,7.0,15.0,34,0.00,,,0.00,Weather View 32 v70,2013-03-15 16:58:00,
2013-03-15 13:03:00,54.0,28.3,30.02,West,270,6.0,15.0,37,0.00,,,0.00,Weather View 32 v70,2013-03-15 17:03:00,
2013-03-15 13:08:00,55.0,27.8,30.02,SSW,202,9.0,15.0,35,0.00,,,0.00,Weather View 32 v70,2013-03-15 17:08:00,
2013-03-15 13:13:00,55.0,28.5,30.01,SSW,202,15.0,15.0,36,0.00,,,0.00,Weather View 32 v70,2013-03-15 17:13:00,
2013-03-15 13:18:00,55.0,29.2,30.01,SW,225,6.0,16.0,37,0.00,,,0.00,Weather View 32 v70,2013-03-15 17:18:00,
2013-03-15 13:23:00,56.0,29.4,30.00,SSW,202,7.0,16.0,36,0.00,,,0.00,Weather View 32 v70,2013-03-15 17:23:00,
2013-03-15 13:28:00,56.0,30.0,30.00,WSW,247,6.0,16.0,37,0.00,,,0.00,Weather View 32 v70,2013-03-15 17:28:00,
2013-03-15 13:33:00,57.0,30.9,29.99,WSW,247,8.0,16.0,37,0.00,,,0.00,Weather View 32 v70,2013-03-15 17:33:00,
2013-03-15 13:38:00,57.0,30.9,29.99,WSW,247,7.0,16.0,37,0.00,,,0.00,Weather View 32 v70,2013-03-15 17:38:00,
2013-03-15 13:43:00,57.0,30.9,29.98,West,270,10.0,16.0,37,0.00,,,0.00,Weather View 32 v70,2013-03-15 17:43:00,
2013-03-15 13:48:00,57.0,30.3,29.98,West,270,12.0,16.0,36,0.00,,,0.00,Weather View 32 v70,2013-03-15 17:48:00,
2013-03-15 13:53:00,57.0,31.6,29.97,SW,225,9.0,16.0,38,0.00,,,0.00,Weather View 32 v70,2013-03-15 17:53:00,
2013-03-15 13:58:00,58.0,31.1,29.97,SW,225,3.0,16.0,36,0.00,,,0.00,Weather View 32 v70,2013-03-15 17:58:00,
2013-03-15 14:03:00,58.0,31.8,29.96,WSW,247,14.0,16.0,37,0.00,,,0.00,Weather View 32 v70,2013-03-15 18:03:00,
2013-03-15 14:08:00,57.0,30.3,29.96,SW,225,7.0,16.0,36,0.00,,,0.00,Weather View 32 v70,2013-03-15 18:08:00,
2013-03-15 14:13:00,58.0,31.1,29.95,South,180,5.0,16.0,36,0.00,,,0.00,Weather View 32 v70,2013-03-15 18:13:00,
2013-03-15 14:18:00,58.0,31.8,29.95,SW,225,9.0,17.0,37,0.00,,,0.00,Weather View 32 v70,2013-03-15 18:18:00,
2013-03-15 14:23:00,58.0,31.1,29.95,SW,225,4.0,17.0,36,0.00,,,0.00,Weather View 32 v70,2013-03-15 18:23:00,
2013-03-15 14:28:00,58.0,31.1,29.95,SSW,202,7.0,18.0,36,0.00,,,0.00,Weather View 32 v70,2013-03-15 18:28:00,
2013-03-15 14:33:00,58.0,32.5,29.94,SW,225,7.0,18.0,38,0.00,,,0.00,Weather View 32 v70,2013-03-15 18:33:00,
2013-03-15 14:39:00,59.0,33.4,29.94,SW,225,6.0,19.0,38,0.00,,,0.00,Weather View 32 v70,2013-03-15 18:39:00,
2013-03-15 14:44:00,59.0,32.7,29.93,West,270,9.0,19.0,37,0.00,,,0.00,Weather View 32 v70,2013-03-15 18:44:00,
2013-03-15 14:49:00,59.0,32.7,29.93,SW,225,6.0,19.0,37,0.00,,,0.00,Weather View 32 v70,2013-03-15 18:49:00,
2013-03-15 14:54:00,59.0,32.0,29.92,SSW,202,10.0,19.0,36,0.00,,,0.00,Weather View 32 v70,2013-03-15 18:54:00,
2013-03-15 14:59:00,59.0,32.0,29.92,SW,225,5.0,19.0,36,0.00,,,0.00,Weather View 32 v70,2013-03-15 18:59:00,
2013-03-15 15:04:00,60.0,33.6,29.91,SSW,202,6.0,19.0,37,0.00,,,0.00,Weather View 32 v70,2013-03-15 19:04:00,
2013-03-15 15:09:00,60.0,34.3,29.91,WSW,247,12.0,19.0,38,0.00,,,0.00,Weather View 32 v70,2013-03-15 19:09:00,
2013-03-15 15:14:00,60.0,33.6,29.90,SW,225,10.0,19.0,37,0.00,,,0.00,Weather View 32 v70,2013-03-15 19:14:00,
2013-03-15 15:19:00,60.0,32.9,29.90,South,180,10.0,19.0,36,0.00,,,0.00,Weather View 32 v70,2013-03-15 19:19:00,
2013-03-15 15:24:00,60.0,32.9,29.90,SW,225,8.0,19.0,36,0.00,,,0.00,Weather View 32 v70,2013-03-15 19:24:00,
2013-03-15 15:29:00,60.0,32.9,29.90,SW,225,5.0,19.0,36,0.00,,,0.00,Weather View 32 v70,2013-03-15 19:29:00,
2013-03-15 15:34:00,60.0,33.6,29.89,WSW,247,15.0,19.0,37,0.00,,,0.00,Weather View 32 v70,2013-03-15 19:34:00,
2013-03-15 15:39:00,60.0,33.6,29.89,SW,225,10.0,19.0,37,0.00,,,0.00,Weather View 32 v70,2013-03-15 19:39:00,
2013-03-15 15:44:00,60.0,32.9,29.89,SW,225,5.0,19.0,36,0.00,,,0.00,Weather View 32 v70,2013-03-15 19:44:00,
2013-03-15 15:49:00,60.0,32.2,29.89,South,180,6.0,19.0,35,0.00,,,0.00,Weather View 32 v70,2013-03-15 19:49:00,
2013-03-15 15:54:00,60.0,31.5,29.88,SSW,202,10.0,19.0,34,0.00,,,0.00,Weather View 32 v70,2013-03-15 19:54:00,
2013-03-15 15:59:00,61.0,33.8,29.88,SW,225,2.0,19.0,36,0.00,,,0.00,Weather View 32 v70,2013-03-15 19:59:00,
2013-03-15 16:04:00,61.0,32.4,29.87,SSW,202,9.0,19.0,34,0.00,,,0.00,Weather View 32 v70,2013-03-15 20:04:00,
2013-03-15 16:09:00,61.0,32.4,29.87,SSW,202,10.0,18.0,34,0.00,,,0.00,Weather View 32 v70,2013-03-15 20:09:00,
2013-03-15 16:14:00,61.0,33.1,29.87,SSW,202,12.0,19.0,35,0.00,,,0.00,Weather View 32 v70,2013-03-15 20:14:00,
2013-03-15 16:19:00,60.0,31.5,29.87,SSW,202,9.0,19.0,34,0.00,,,0.00,Weather View 32 v70,2013-03-15 20:19:00,
2013-03-15 16:24:00,61.0,33.1,29.87,SW,225,9.0,19.0,35,0.00,,,0.00,Weather View 32 v70,2013-03-15 20:24:00,
2013-03-15 16:29:00,61.0,32.4,29.87,SSW,202,8.0,19.0,34,0.00,,,0.00,Weather View 32 v70,2013-03-15 20:29:00,
2013-03-15 16:34:00,61.0,33.1,29.86,SW,225,9.0,19.0,35,0.00,,,0.00,Weather View 32 v70,2013-03-15 20:34:00,
2013-03-15 16:39:00,62.0,33.2,29.86,SSW,202,2.0,19.0,34,0.00,,,0.00,Weather View 32 v70,2013-03-15 20:39:00,
2013-03-15 16:44:00,62.0,33.2,29.85,SSW,202,9.0,19.0,34,0.00,,,0.00,Weather View 32 v70,2013-03-15 20:44:00,
2013-03-15 16:49:00,62.0,34.0,29.85,SW,225,5.0,19.0,35,0.00,,,0.00,Weather View 32 v70,2013-03-15 20:49:00,
2013-03-15 16:54:00,61.0,31.6,29.85,SSW,202,14.0,22.0,33,0.00,,,0.00,Weather View 32 v70,2013-03-15 20:54:00,
2013-03-15 16:59:00,61.0,32.4,29.85,WSW,247,9.0,22.0,34,0.00,,,0.00,Weather View 32 v70,2013-03-15 20:59:00,
2013-03-15 17:04:00,62.0,33.2,29.85,South,180,7.0,22.0,34,0.00,,,0.00,Weather View 32 v70,2013-03-15 21:04:00,
2013-03-15 17:09:00,61.0,32.4,29.85,SSW,202,6.0,22.0,34,0.00,,,0.00,Weather View 32 v70,2013-03-15 21:09:00,
2013-03-15 17:14:00,61.0,32.4,29.84,WSW,247,8.0,22.0,34,0.00,,,0.00,Weather View 32 v70,2013-03-15 21:14:00,
2013-03-15 17:19:00,62.0,34.0,29.84,South,180,7.0,22.0,35,0.00,,,0.00,Weather View 32 v70,2013-03-15 21:19:00,
2013-03-15 17:24:00,62.0,33.2,29.84,SSW,202,11.0,22.0,34,0.00,,,0.00,Weather View 32 v70,2013-03-15 21:24:00,
2013-03-15 17:29:00,62.0,33.2,29.84,SSW,202,9.0,22.0,34,0.00,,,0.00,Weather View 32 v70,2013-03-15 21:29:00,
2013-03-15 17:34:00,62.0,34.0,29.84,SSW,202,7.0,22.0,35,0.00,,,0.00,Weather View 32 v70,2013-03-15 21:34:00,
2013-03-15 17:39:00,62.0,33.2,29.84,South,180,6.0,22.0,34,0.00,,,0.00,Weather View 32 v70,2013-03-15 21:39:00,
2013-03-15 17:44:00,62.0,33.2,29.84,SSW,202,9.0,22.0,34,0.00,,,0.00,Weather View 32 v70,2013-03-15 21:44:00,
2013-03-15 17:49:00,62.0,33.2,29.84,SW,225,9.0,22.0,34,0.00,,,0.00,Weather View 32 v70,2013-03-15 21:49:00,
2013-03-15 17:54:00,62.0,34.0,29.84,WSW,247,9.0,21.0,35,0.00,,,0.00,Weather View 32 v70,2013-03-15 21:54:00,
2013-03-15 17:59:00,62.0,33.2,29.84,South,180,5.0,21.0,34,0.00,,,0.00,Weather View 32 v70,2013-03-15 21:59:00,
2013-03-15 18:04:00,62.0,33.2,29.83,South,180,8.0,21.0,34,0.00,,,0.00,Weather View 32 v70,2013-03-15 22:04:00,
2013-03-15 18:09:00,62.0,34.0,29.83,South,180,1.0,19.0,35,0.00,,,0.00,Weather View 32 v70,2013-03-15 22:09:00,
2013-03-15 18:14:00,62.0,33.2,29.83,SW,225,8.0,19.0,34,0.00,,,0.00,Weather View 32 v70,2013-03-15 22:14:00,
2013-03-15 18:19:00,62.0,34.0,29.83,SW,225,6.0,19.0,35,0.00,,,0.00,Weather View 32 v70,2013-03-15 22:19:00,
2013-03-15 18:24:00,61.0,33.1,29.83,SW,225,10.0,19.0,35,0.00,,,0.00,Weather View 32 v70,2013-03-15 22:24:00,
2013-03-15 18:29:00,61.0,33.8,29.83,South,180,10.0,19.0,36,0.00,,,0.00,Weather View 32 v70,2013-03-15 22:29:00,
2013-03-15 18:35:00,61.0,33.8,29.83,SW,225,8.0,19.0,36,0.00,,,0.00,Weather View 32 v70,2013-03-15 22:35:00,
2013-03-15 18:40:00,61.0,33.1,29.83,South,180,6.0,18.0,35,0.00,,,0.00,Weather View 32 v70,2013-03-15 22:40:00,
2013-03-15 18:45:00,61.0,33.8,29.83,SSW,202,8.0,18.0,36,0.00,,,0.00,Weather View 32 v70,2013-03-15 22:45:00,
2013-03-15 18:50:00,61.0,33.8,29.83,SW,225,5.0,18.0,36,0.00,,,0.00,Weather View 32 v70,2013-03-15 22:50:00,
2013-03-15 18:55:00,61.0,34.5,29.83,SW,225,2.0,18.0,37,0.00,,,0.00,Weather View 32 v70,2013-03-15 22:55:00,
2013-03-15 19:00:00,61.0,34.5,29.83,South,180,9.0,18.0,37,0.00,,,0.00,Weather View 32 v70,2013-03-15 23:00:00,
2013-03-15 19:05:00,60.0,33.6,29.83,SSW,202,8.0,18.0,37,0.00,,,0.00,Weather View 32 v70,2013-03-15 23:05:00,
2013-03-15 19:10:00,60.0,33.6,29.83,South,180,7.0,18.0,37,0.00,,,0.00,Weather View 32 v70,2013-03-15 23:10:00,
2013-03-15 19:15:00,60.0,34.3,29.83,South,180,5.0,18.0,38,0.00,,,0.00,Weather View 32 v70,2013-03-15 23:15:00,
2013-03-15 19:20:00,60.0,34.3,29.83,South,180,5.0,15.0,38,0.00,,,0.00,Weather View 32 v70,2013-03-15 23:20:00,
2013-03-15 19:25:00,60.0,34.9,29.83,SSW,202,6.0,15.0,39,0.00,,,0.00,Weather View 32 v70,2013-03-15 23:25:00,
2013-03-15 19:30:00,59.0,34.7,29.83,SSW,202,6.0,15.0,40,0.00,,,0.00,Weather View 32 v70,2013-03-15 23:30:00,
2013-03-15 19:35:00,59.0,34.7,29.84,SSW,202,4.0,15.0,40,0.00,,,0.00,Weather View 32 v70,2013-03-15 23:35:00,
2013-03-15 19:40:00,58.0,34.4,29.84,SSW,202,4.0,15.0,41,0.00,,,0.00,Weather View 32 v70,2013-03-15 23:40:00,
2013-03-15 19:45:00,58.0,34.4,29.84,SSW,202,2.0,15.0,41,0.00,,,0.00,Weather View 32 v70,2013-03-15 23:45:00,
2013-03-15 19:50:00,58.0,34.4,29.84,SSW,202,4.0,14.0,41,0.00,,,0.00,Weather View 32 v70,2013-03-15 23:50:00,
2013-03-15 19:55:00,58.0,35.0,29.84,South,180,7.0,14.0,42,0.00,,,0.00,Weather View 32 v70,2013-03-15 23:55:00,
2013-03-15 19:57:00,58.0,35.0,29.84,South,180,6.0,14.0,42,0.00,,,0.00,Weather View 32 v70,2013-03-15 23:57:00,
2013-03-15 20:00:00,58.0,35.0,29.84,SSW,202,5.0,14.0,42,0.00,,,0.00,Weather View 32 v70,2013-03-16 00:00:00,
2013-03-15 20:10:00,58.0,35.0,29.84,SSW,202,5.0,12.0,42,0.00,,,0.00,Weather View 32 v70,2013-03-16 00:10:00,
2013-03-15 20:15:00,57.0,34.7,29.84,SSW,202,5.0,12.0,43,0.00,,,0.00,Weather View 32 v70,2013-03-16 00:15:00,
2013-03-15 20:20:00,57.0,34.7,29.84,SSW,202,4.0,12.0,43,0.00,,,0.00,Weather View 32 v70,2013-03-16 00:20:00,
2013-03-15 20:25:00,57.0,34.7,29.85,South,180,4.0,12.0,43,0.00,,,0.00,Weather View 32 v70,2013-03-16 00:25:00,
2013-03-15 20:30:00,57.0,35.3,29.85,SSW,202,6.0,12.0,44,0.00,,,0.00,Weather View 32 v70,2013-03-16 00:30:00,
2013-03-15 20:35:00,57.0,34.7,29.85,SSW,202,6.0,12.0,43,0.00,,,0.00,Weather View 32 v70,2013-03-16 00:35:00,
2013-03-15 20:40:00,57.0,35.3,29.85,South,180,5.0,12.0,44,0.00,,,0.00,Weather View 32 v70,2013-03-16 00:40:00,
2013-03-15 20:45:00,57.0,35.3,29.84,South,180,1.0,12.0,44,0.00,,,0.00,Weather View 32 v70,2013-03-16 00:45:00,
2013-03-15 20:50:00,56.0,34.3,29.84,South,180,6.0,10.0,44,0.00,,,0.00,Weather View 32 v70,2013-03-16 00:50:00,
2013-03-15 20:55:00,56.0,34.9,29.85,SSW,202,5.0,10.0,45,0.00,,,0.00,Weather View 32 v70,2013-03-16 00:55:00,
2013-03-15 21:00:00,56.0,34.9,29.85,South,180,5.0,10.0,45,0.00,,,0.00,Weather View 32 v70,2013-03-16 01:00:00,
2013-03-15 21:05:00,56.0,34.9,29.85,SSW,202,6.0,10.0,45,0.00,,,0.00,Weather View 32 v70,2013-03-16 01:05:00,
2013-03-15 21:10:00,56.0,34.9,29.85,SSW,202,4.0,10.0,45,0.00,,,0.00,Weather View 32 v70,2013-03-16 01:10:00,
2013-03-15 21:15:00,56.0,35.5,29.85,SSW,202,5.0,10.0,46,0.00,,,0.00,Weather View 32 v70,2013-03-16 01:15:00,
2013-03-15 21:20:00,56.0,35.5,29.85,SSW,202,6.0,10.0,46,0.00,,,0.00,Weather View 32 v70,2013-03-16 01:20:00,
2013-03-15 21:25:00,56.0,35.5,29.85,South,180,4.0,10.0,46,0.00,,,0.00,Weather View 32 v70,2013-03-16 01:25:00,
2013-03-15 21:30:00,56.0,35.5,29.85,South,180,5.0,10.0,46,0.00,,,0.00,Weather View 32 v70,2013-03-16 01:30:00,
2013-03-15 21:35:00,56.0,35.5,29.85,SSW,202,4.0,10.0,46,0.00,,,0.00,Weather View 32 v70,2013-03-16 01:35:00,
2013-03-15 21:40:00,56.0,35.5,29.85,SW,225,4.0,10.0,46,0.00,,,0.00,Weather View 32 v70,2013-03-16 01:40:00,
2013-03-15 21:45:00,56.0,36.0,29.85,SSW,202,3.0,10.0,47,0.00,,,0.00,Weather View 32 v70,2013-03-16 01:45:00,
2013-03-15 21:50:00,55.0,35.1,29.85,SSW,202,2.0,10.0,47,0.00,,,0.00,Weather View 32 v70,2013-03-16 01:50:00,
2013-03-15 21:55:00,55.0,35.6,29.85,SSW,202,2.0,10.0,48,0.00,,,0.00,Weather View 32 v70,2013-03-16 01:55:00,
2013-03-15 22:00:00,55.0,35.6,29.85,SSW,202,2.0,10.0,48,0.00,,,0.00,Weather View 32 v70,2013-03-16 02:00:00,
2013-03-15 22:05:00,55.0,36.2,29.85,SSW,202,0.0,8.0,49,0.00,,,0.00,Weather View 32 v70,2013-03-16 02:05:00,
2013-03-15 22:12:00,54.0,35.7,29.85,SSW,202,0.0,8.0,50,0.00,,,0.00,Weather View 32 v70,2013-03-16 02:12:00,
2013-03-15 22:17:00,54.0,36.2,29.86,SSW,202,0.0,8.0,51,0.00,,,0.00,Weather View 32 v70,2013-03-16 02:17:00,
2013-03-15 22:22:00,53.0,34.8,29.86,SSW,202,0.0,8.0,50,0.00,,,0.00,Weather View 32 v70,2013-03-16 02:22:00,
2013-03-15 22:27:00,53.0,34.8,29.86,SSW,202,0.0,8.0,50,0.00,,,0.00,Weather View 32 v70,2013-03-16 02:27:00,
2013-03-15 22:32:00,53.0,35.3,29.86,SSW,202,0.0,7.0,51,0.00,,,0.00,Weather View 32 v70,2013-03-16 02:32:00,
2013-03-15 22:37:00,53.0,35.3,29.86,SSW,202,0.0,7.0,51,0.00,,,0.00,Weather View 32 v70,2013-03-16 02:37:00,
2013-03-15 22:42:00,53.0,35.8,29.86,SSW,202,0.0,6.0,52,0.00,,,0.00,Weather View 32 v70,2013-03-16 02:42:00,
2013-03-15 22:47:00,52.0,35.4,29.85,SSW,202,0.0,6.0,53,0.00,,,0.00,Weather View 32 v70,2013-03-16 02:47:00,
2013-03-15 22:52:00,52.0,35.8,29.85,SSW,202,0.0,5.0,54,0.00,,,0.00,Weather View 32 v70,2013-03-16 02:52:00,
2013-03-15 22:57:00,51.0,34.9,29.85,SSW,202,0.0,5.0,54,0.00,,,0.00,Weather View 32 v70,2013-03-16 02:57:00,
2013-03-15 23:02:00,51.0,35.4,29.85,SSW,202,0.0,4.0,55,0.00,,,0.00,Weather View 32 v70,2013-03-16 03:02:00,
2013-03-15 23:07:00,51.0,35.4,29.85,SSW,202,0.0,1.0,55,0.00,,,0.00,Weather View 32 v70,2013-03-16 03:07:00,
2013-03-15 23:12:00,51.0,35.8,29.85,SSW,202,0.0,0.0,56,0.00,,,0.00,Weather View 32 v70,2013-03-16 03:12:00,
2013-03-15 23:17:00,51.0,35.8,29.85,SSW,202,0.0,0.0,56,0.00,,,0.00,Weather View 32 v70,2013-03-16 03:17:00,
2013-03-15 23:22:00,50.0,36.2,29.85,SSW,202,0.0,0.0,59,0.00,,,0.00,Weather View 32 v70,2013-03-16 03:22:00,
2013-03-15 23:27:00,49.0,35.7,29.85,SSW,202,0.0,0.0,60,0.00,,,0.00,Weather View 32 v70,2013-03-16 03:27:00,
2013-03-15 23:32:00,49.0,36.1,29.85,SSW,202,0.0,0.0,61,0.00,,,0.00,Weather View 32 v70,2013-03-16 03:32:00,
2013-03-15 23:37:00,49.0,36.5,29.86,SSW,202,0.0,0.0,62,0.00,,,0.00,Weather View 32 v70,2013-03-16 03:37:00,
2013-03-15 23:42:00,48.0,36.0,29.86,SSW,202,0.0,0.0,63,0.00,,,0.00,Weather View 32 v70,2013-03-16 03:42:00,
2013-03-15 23:47:00,48.0,36.0,29.86,SSW,202,0.0,0.0,63,0.00,,,0.00,Weather View 32 v70,2013-03-16 03:47:00,
2013-03-15 23:52:00,48.0,36.4,29.86,SSW,202,0.0,0.0,64,0.00,,,0.00,Weather View 32 v70,2013-03-16 03:52:00,
2013-03-15 23:57:00,47.0,36.2,29.86,SSW,202,0.0,0.0,66,0.00,,,0.00,Weather View 32 v70,2013-03-16 03:57:00,